Location: Campestrin
(46.4667°N, 11.7167°E)
Time: 03:59:46
(UTC+00:00)

SL-16 R/B - Pass Details

Date: 18 April 2021
Orbit: 840 x 849 km, 71.0° (Epoch: 16 May)

Event Time Altitude Azimuth Distance (km) Brightness Sun altitude
Rises 18:44:25 0° 341° (NNW) 3,424 6.1 -7.2°
Reaches altitude 10° 18:48:40 10° 11° (N) 2,484 4.8 -7.8°
Maximum altitude 18:50:53 12° 34° (NE) 2,326 4.4 -8.2°
Drops below altitude 10° 18:53:06 10° 57° (ENE) 2,478 4.3 -8.5°
Enters shadow 18:55:51 - 79° (E) 3,020 4.6 -8.9°
